FW5243 Weather Reports


Display with metric or nautical units.
time (UTC)temp
F
wind
direction
speed
MPH
gust
MPH
rain 1hr
in
rain 24hr
in
rain mn
in
humidity
%
barometer
mb
20260902041552 70 95 0.0 0.0 0.00 0.05 0.00 100 1018.6
20260902040052 70 95 0.0 0.0 0.00 0.05 0.00 100 1018.6
20260902034550 71 95 0.0 0.0 0.00 0.05 0.05 100 1018.3
20260902033051 71 95 0.0 0.0 0.00 0.05 0.05 100 1018.3
20260902031555 72 95 0.0 0.0 0.00 0.05 0.05 100 1018.4
20260902030049 71 301 0.0 0.0 0.00 0.05 0.05 100 1018.2
20260902024556 71 301 0.0 0.0 0.00 0.12 0.05 100 1017.9
20260902023048 71 301 0.0 0.0 0.00 0.12 0.05 100 1017.8
20260902021559 71 301 0.0 0.0 0.00 0.12 0.05 100 1017.7
20260902020056 71 301 0.0 0.0 0.00 0.12 0.05 100 1017.7
20260902014547 72 301 0.0 0.0 0.00 0.12 0.05 100 1017.5
20260902013048 72 301 0.0 0.0 0.00 0.12 0.05 100 1017.6
20260902011546 72 301 0.0 0.0 0.00 0.12 0.05 100 1017.7
20260902010046 73 301 0.0 0.0 0.00 0.12 0.05 100 1017.6
20260902004546 74 301 0.0 0.0 0.00 0.12 0.05 100 1017.2
20260902003045 75 297 0.0 0.0 0.00 0.12 0.05 100 1016.6
20260902001548 75 265 0.0 0.0 0.00 0.12 0.05 100 1016.7
20260902000044 75 265 0.0 0.0 0.00 0.12 0.05 100 1016.5
20260901234543 75 265 0.0 0.0 0.00 0.12 0.05 100 1016.5
20260901233043 75 265 0.0 0.0 0.00 0.12 0.05 100 1016.8
20260901231543 75 265 0.0 0.0 0.00 0.12 0.05 100 1016.6
20260901230058 75 265 0.0 0.0 0.00 0.12 0.05 100 1016.4
20260901224542 76 265 0.0 0.0 0.00 0.12 0.05 100 1016.6
20260901223050 76 265 0.0 0.0 0.00 0.12 0.05 100 1016.7
20260901221541 76 116 0.0 3.0 0.00 0.12 0.05 100 1016.5
20260901220100 76 16 0.0 0.0 0.00 0.12 0.05 100 1015.9
20260901214539 76 16 0.0 0.0 0.00 0.23 0.05 100 1015.5
20260901213046 77 16 0.0 0.0 0.00 0.23 0.05 100 1015.7
20260901211537 78 16 0.0 1.0 0.00 0.23 0.05 100 1015.7
20260901210038 79 16 0.0 1.0 0.00 0.23 0.05 100 1016.0
20260901204541 81 33 0.0 0.0 0.00 0.23 0.05 100 1015.6
20260901203038 82 34 0.0 3.0 0.00 0.23 0.05 100 1015.7
20260901201536 82 94 0.0 2.0 0.00 0.23 0.05 100 1015.9
20260901200032 82 94 0.0 4.0 0.00 0.23 0.05 100 1016.1
20260901194534 82 91 1.0 6.0 0.00 0.23 0.05 100 1016.1
20260901193034 83 112 0.0 4.0 0.00 0.23 0.05 100 1016.3
20260901191528 82 94 0.0 4.0 0.00 0.23 0.05 100 1016.2
20260901190027 82 109 2.0 8.0 0.00 0.23 0.05 100 1016.2
20260901184541 81 141 0.0 2.0 0.00 0.25 0.05 100 1016.2
20260901183023 81 120 0.0 8.0 0.00 0.25 0.05 100 1016.4
20260901181537 81 157 2.0 4.0 0.00 0.25 0.05 100 1016.5
20260901180016 79 114 0.0 4.0 0.00 0.25 0.05 100 1016.5
20260901174540 78 127 0.0 2.0 0.00 0.31 0.05 100 1016.3
20260901173012 78 127 0.0 3.0 0.00 0.31 0.05 100 1016.5
20260901171510 77 137 0.0 2.0 0.00 0.31 0.05 100 1016.5
20260901170010 76 119 1.0 3.0 0.00 0.31 0.05 100 1016.6
20260901164506 76 166 0.0 2.0 0.00 0.31 0.05 100 1016.6
20260901163004 76 107 0.0 4.0 0.00 0.31 0.05 100 1016.8
20260901161613 74 117 1.0 3.0 0.00 0.31 0.05 100 1016.9
20260901160114 74 167 0.0 5.0 0.00 0.31 0.05 100 1017.0
20260901154550 73 108 0.0 3.0 0.00 0.31 0.05 100 1017.1
20260901153055 72 148 0.0 3.0 0.00 0.31 0.05 100 1017.2
20260901151542 72 202 0.0 5.0 0.00 0.31 0.05 100 1017.4
20260901150038 71 159 0.0 2.0 0.00 0.31 0.05 100 1017.5
20260901144537 71 250 0.0 1.0 0.00 0.31 0.05 100 1017.5
20260901143036 70 111 0.0 0.0 0.00 0.31 0.05 100 1017.5
20260901141541 69 111 0.0 0.0 0.00 0.31 0.05 100 1017.4
20260901140039 69 111 0.0 0.0 0.00 0.31 0.05 100 1017.7
20260901134536 69 114 0.0 0.0 0.02 0.31 0.05 100 1017.7
20260901133030 69 128 0.0 0.0 0.03 0.31 0.05 100 1017.6
20260901131529 69 248 0.0 1.0 0.03 0.31 0.05 100 1017.3
20260901130029 68 89 0.0 0.0 0.04 0.31 0.05 100 1017.4
20260901124533 67 88 0.0 0.0 0.01 0.28 0.02 100 1017.7
20260901123038 67 18 0.0 0.0 0.01 0.28 0.02 100 1017.6
20260901121524 67 9 0.0 0.0 0.01 0.28 0.02 100 1017.6
20260901120034 67 9 0.0 2.0 0.00 0.27 0.01 100 1017.9
20260901114521 67 350 0.0 1.0 0.00 0.27 0.01 100 1017.6
20260901113022 67 278 0.0 0.0 0.00 0.27 0.01 100 1017.5
20260901111528 67 278 0.0 0.0 0.00 0.27 0.01 100 1017.6
20260901110020 67 278 0.0 0.0 0.00 0.27 0.01 100 1017.5
20260901104519 67 250 0.0 0.0 0.00 0.27 0.01 100 1017.5
20260901103020 67 250 0.0 0.0 0.00 0.27 0.01 100 1017.4
20260901101518 67 251 0.0 1.0 0.01 0.27 0.01 100 1017.3
20260901100017 67 251 0.0 0.0 0.01 0.27 0.01 100 1017.4
20260901094516 66 251 0.0 0.0 0.01 0.27 0.01 100 1017.5
20260901093015 66 251 0.0 0.0 0.01 0.27 0.01 100 1017.7
20260901091513 67 251 0.0 0.0 0.00 0.26 0.00 100 1017.9
20260901090014 67 251 0.0 0.0 0.00 0.26 0.00 100 1018.0
20260901084512 67 251 0.0 0.0 0.00 0.26 0.00 100 1017.9
20260901083011 67 251 0.0 0.0 0.00 0.26 0.00 100 1018.0
20260901081510 67 251 0.0 0.0 0.00 0.26 0.00 100 1018.1
20260901080013 67 251 0.0 0.0 0.00 0.26 0.00 100 1018.3
20260901074508 67 251 0.0 0.0 0.00 0.26 0.00 100 1018.5
20260901073009 67 251 0.0 0.0 0.00 0.26 0.00 100 1018.4
20260901071506 67 251 0.0 0.0 0.00 0.26 0.00 100 1018.5
20260901070005 67 251 0.0 0.0 0.00 0.26 0.00 100 1018.4
20260901064508 67 251 0.0 0.0 0.00 0.26 0.00 100 1018.5
20260901063006 67 251 0.0 0.0 0.00 0.26 0.00 100 1018.6
20260901061502 67 251 0.0 0.0 0.00 0.26 0.00 100 1018.7
20260901060001 67 251 0.0 0.0 0.00 0.26 0.00 100 1018.8
20260901054600 67 251 0.0 0.0 0.00 0.28 0.00 100 1018.9
20260901053110 66 251 0.0 0.0 0.00 0.28 0.00 100 1018.9
20260901051558 66 251 0.0 0.0 0.00 0.28 0.00 100 1019.0
20260901050058 67 251 0.0 0.0 0.00 0.28 0.00 100 1019.1
20260901044602 67 251 0.0 0.0 0.00 0.28 0.00 100 1019.3
20260901043059 67 251 0.0 0.0 0.00 0.28 0.00 100 1019.1